Starlink 1704

operational
NORAD ID: 47625 Int'l Des: 2021-012 Owner: SPXS Country: US Constellation: starlink
LEOCIRCULARSTARLINK_TYPE

About Starlink 1704

Description loading...

Live Position

Loading 3D Globe...

Upcoming Passes

Altitude History

Altitude vs Time

uPlot chart will show altitude changes over time

Two-Line Element Set

1 47625U 21012F 25301.29170591 .00002469 00000-0 18461-3 0 9999
2 47625 53.0546 305.9659 0001346 91.0539 269.0604 15.06401419260025
Epoch: Oct 28, 2025 • Age: 25 hours

Current Status

Altitude 556.7 km
Velocity 7.58 km/s
Sub-Earth Point -29.75°S, 9.02°W
Launch Date Feb 16, 2021
Age 4.6 years
Type internet

Technical Details

Classification Payload
Mass 260.00 kg
Dry Mass 248.00 kg
Total Mass 260.00 kg
Length 0.20 m
Diameter 2.80 m
Span 9.00 m
Shape Box + pan
Manufacturer SPXS
Bus Type Starlink
Phase Status In Orbit
Owner/State SPXS/US

Large Constellations

Loading constellations...